Regional Weather Roundup
Issued by NWS

Home | Current Version | Previous Version | Graphics & Text | Print | Product List | Glossary On
Versions: 1 2 3 4 5 6 7 8 9 10 11 12 13 14 15 16 17 18 19 20 21 22 23 24 25 26 27 28 29 30 31 32 33 34 35 36 37 38 39 40 41 42 43 44 45 46 47 48 49 50
528
ASUS43 KMPX 221110
RWRMN
WEATHER ROUNDUP FOR MINNESOTA
NATIONAL WEATHER SERVICE TWIN CITIES/CHANHASSEN MN
500 AM CST THU FEB 22 2018


NOTE: "FAIR" INDICATES FEW OR NO CLOUDS BELOW 12,000 FEET WITH NO
SIGNIFICANT WEATHER AND/OR OBSTRUCTIONS TO VISIBILITY. N/A MEANS
CURRENT SKY AND/OR WEATHER CONDITIONS ARE NOT AVAILABLE.

MNZ060>063-068>070-221200-
   Twin Cities Metro

CITY           SKY/WX    TMP DP  RH WIND       PRES   REMARKS
TWIN CITIES    MOCLDY     9   6  88 NE5       30.60F WCI   1
ST PAUL        FAIR       6   3  87 CALM      30.63S
CRYSTAL        FAIR       2  -3  80 CALM      30.59S
BLAINE         FAIR       3   0  85 CALM      30.60R
LAKEVILLE        N/A      3   1  92 CALM      30.60R
EDEN PRAIRIE   FAIR       7   3  84 E6        30.58F WCI  -3
SOUTH ST PAUL  FAIR       7   3  84 CALM      30.61F
LAKE ELMO      FAIR       1  -4  78 CALM      30.62R
$$
MNZ001>005-007-008-013>017-022>024-027-028-221200-
   Northwest Minnesota

CITY           SKY/WX    TMP DP  RH WIND       PRES   REMARKS
BEMIDJI        FAIR      -8 -12  83 E3        30.48S
HALLOCK        FAIR      -4  -9  77 SE13      30.45F WCI -23
ROSEAU         FAIR      -4  -9  77 S9        30.47S WCI -20
WARROAD        FAIR      -6  -9  84 S5        30.47S WCI -17
THIEF RVR FALL FAIR      -5 -10  79 E7        30.47F WCI -19
CROOKSTON      FAIR      -2  -8  78 SE8       30.48F WCI -17
FOSSTON        FAIR      -2  -6  84 SE8       30.47S WCI -17
DETROIT LAKES  FAIR      -4  -8  84 SE9       30.48S WCI -20
MOORHEAD       FAIR       3  -2  78 S14       30.47S WCI -15
PARK RAPIDS    FAIR      -9 -15  75 SE3       30.49S
MAHNOMEN       FAIR       4  -2  75 SE9       30.47S WCI -11
$$
MNZ006-009>011-018-025>026-221200-
   North Central Minnesota

CITY           SKY/WX    TMP DP  RH WIND       PRES   REMARKS
BAUDETTE       FAIR     -10 -13  86 SE6       30.48S WCI -23
FLAG ISLAND    FAIR      -6 -11  77 S5        30.46F WCI -17
INTL FALLS     FAIR     -17 -21  82 CALM      30.51F
WASKISH        FAIR     -13 -18  77 SE3       30.49F
BIG FORK       FAIR     -11 -17  77 CALM      30.52R
LONGVILLE      FAIR     -15 -18  84 CALM      30.52S
GRAND RAPIDS   FAIR     -10 -14  82 CALM      30.55S
CRANE LAKE     FAIR     -20 -26  76 CALM      30.57S
ORR            FAIR     -11 -17  77 CALM      30.51R
COOK             N/A    -17 -20  83 CALM      30.54S
WALKER         FAIR      -4  -8  84 SE3       30.50S
$$
MNZ012-019>021-037-221200-
   Northeast Minnesota

CITY           SKY/WX    TMP DP  RH WIND       PRES   REMARKS
DULUTH         FAIR      -4  -9  79 CALM      30.55R
ELY            FAIR     -13 -17  84 CALM      30.54S
HIBBING        FAIR     -18 -22  82 NW5       30.54S WCI -31
EVELETH        FAIR     N/A N/A N/A CALM      30.55S
DULUTH HARBOR  FAIR       3  -2  78 CALM      30.64R
TWO HARBORS    FAIR       0  -6  78 CALM      30.56R
SILVER BAY     FAIR      -8 -11  84 CALM      30.56R
GRAND MARAIS     N/A     14   1  56 VRB3      30.61S
G MARAIS ARPRT FAIR       1  -8  66 CALM      30.51S
$$
MNZ029>031-032-039>041-046>048-054>057-064-221200-
   West Central Minnesota

CITY           SKY/WX    TMP DP  RH WIND       PRES   REMARKS
FERGUS FALLS   FAIR       7  -2  66 SE12      30.50F WCI  -9
WHEATON        FAIR      -2  -8  78 SE17      30.50F WCI -24
MORRIS         FAIR       0  -6  78 SE12      30.50F WCI -18
ALEXANDRIA     FAIR       2  -2  83 SE7       30.51S WCI -11
ELBOW LAKE     FAIR       4  -2  77 SE9       30.51S WCI -11
WADENA         FAIR      -9 -11  92 SE3       30.51S
GLENWOOD       FAIR       0  -4  85 SE5       30.53S WCI -10
APPLETON       FAIR       3  -2  78 E8        30.52F WCI -10
BENSON         FAIR       3   0  85 S5        30.55S WCI  -6
ORTONVILLE     FAIR       1  -4  78 SE12      30.49F WCI -15
MADISON        FAIR       1  -2  85 SE9       30.52F WCI -14
WILLMAR        FAIR       3   0  85 SE3       30.57S
$$
MNZ033>034-036-042>043-049>051-058-059-221200-
   Central Minnesota

CITY           SKY/WX    TMP DP  RH WIND       PRES   REMARKS
ST CLOUD       FAIR      -7 -11  83 E5        30.57S WCI -18
SAUK CENTRE    FAIR      -6 -10  84 CALM      30.55S
PAYNESVILLE    FAIR      -5  -8  86 CALM      30.55F
AITKIN         FAIR      -9 -15  77 CALM      30.54R
PINE RIVER     FAIR     -11 -17  77 CALM      30.56R
BRAINERD       FAIR      -7 -14  71 CALM      30.55R
STAPLES        FAIR      -9 -15  77 CALM      30.53R
LONG PRAIRIE   FAIR      -6  -9  84 CALM      30.54R
LITTLE FALLS   FAIR      -6 -13  71 CALM      30.57S
LITCHFIELD     FAIR       0  -4  85 CALM      30.57R
BUFFALO        FAIR      -3  -7  82 NE3       30.58F
MAPLE LAKE     FAIR      -4  -7  87 CALM      30.59R
HUTCHINSON     FAIR       3  -2  81 CALM      30.57S
$$
MNZ037-044-045-052-053-221200-
   East Central Minnesota

CITY           SKY/WX    TMP DP  RH WIND       PRES   REMARKS
PRINCETON      FAIR      -6  -9  84 CALM      30.58S
CAMBRIDGE        N/A     -6 -11  77 CALM      30.61R
RUSH CITY      FAIR      -6 -11  82 CALM      30.61S
MOOSE LAKE     FAIR     -13 -18  77 CALM      30.58R
HINCKLEY       FAIR     -11 -15  84 CALM      30.61R
CLOQUET        FAIR      -6 -11  77 CALM      30.56R
MCGREGOR       FAIR      -4  -8  84 CALM      30.56R
$$
MNZ071>073-080-081-089-090-097-098-221200-
   Southwest Minnesota

CITY           SKY/WX    TMP DP  RH WIND       PRES   REMARKS
MONTEVIDEO     FAIR       1  -2  85 SE6       30.53F WCI -10
GRANITE FALLS  FAIR       1  -3  85 E7        30.55F WCI -12
CANBY          FAIR       1  -2  85 E3        30.51F
MARSHALL       FAIR       3  -1  83 S9        30.53S WCI -12
REDWOOD FALLS  FAIR       4   1  88 SE6       30.56R WCI  -7
OLIVIA         FAIR       0  -6  78 NE3       30.56R
PIPESTONE      MOCLDY    10   7  85 SE8       30.45F WCI  -1
WORTHINGTON    CLOUDY    13   9  84 E6        30.48F WCI   4
JACKSON        CLOUDY    14   9  79 NE3       30.50S
TRACY          FAIR      10   6  82 SE5       30.51S WCI   2
SLAYTON        CLOUDY    10   6  85 CALM      30.49S
$$
MNZ065>067-074>077-082>085-091>093-221200-
   South Central Minnesota

CITY           SKY/WX    TMP DP  RH WIND       PRES   REMARKS
MANKATO        MOCLDY    13   7  77 E6        30.56F WCI   4
NEW ULM        FAIR      10   1  67 CALM      30.56R
ST JAMES       CLOUDY    14   9  79 CALM      30.56S
FAIRMONT       FAIR      15  12  88 NE6       30.52F WCI   6
GLENCOE        FAIR       8   4  82 CALM      30.57S
FARIBAULT      FAIR       9   5  85 CALM      30.57F
OWATONNA       FAIR      12   9  85 E7        30.54F WCI   2
WASECA         CLOUDY    14   9  79 NE7       30.55F WCI   4
ALBERT LEA     CLOUDY    19  14  79 SE6       30.52F WCI  11
$$
MNZ078>079-086>088-094>096-221200-
   Southeast Minnesota

CITY           SKY/WX    TMP DP  RH WIND       PRES   REMARKS
ROCHESTER      MOCLDY    17  12  80 E6        30.56R WCI   9
RED WING       MOCLDY     7   1  78 CALM      30.62R
STANTON        FAIR       4   0  83 CALM      30.59R
DODGE CENTER   MOCLDY    12   9  85 E3        30.55S
WINONA         CLOUDY    18  12  79 CALM      30.62R
AUSTIN         FLURRIES  19  16  86 E8        30.54F WCI   9
PRESTON        CLOUDY    18  13  81 E5        30.56S WCI  11
$$
ABBREVIATIONS USED IN REMARKS
   TC - TEMPERATURES IN CELSIUS
  WCI - WIND CHILL INDEX
   HX - HEAT INDEX
  VSB - VISIBILITY
$$




USA.gov is the U.S. government's official web portal to all federal, state and local government web resources and services.